Location: Unspecified
(0.0000°N, 0.0000°E)
Time: 23:19:10
(UTC+00:00)

Vanguard 2 - Visible Passes

Search period start: 28 May 2022 00:00
Search period end: 07 June 2022 00:00
Orbit: 552 x 2935 km, 32.9° (Epoch: 28 May)

Date Brightness Start Highest point End Pass type
(mag) Time Alt. Az. Time Alt. Az. Time Alt. Az.
28 May 9.7 03:17:35 35° NNW 03:17:39 35° NNW 03:27:48 10° NE visible
28 May 11.0 05:24:31 10° NW 05:31:04 16° N 05:39:13 10° NNE visible
29 May 11.0 01:32:31 14° NE 01:32:31 14° NE 01:33:41 10° NE visible
29 May 10.0 03:33:53 24° NW 03:35:43 25° NNW 03:44:40 10° NNE visible
30 May 10.7 01:48:48 17° NE 01:48:48 17° NE 01:51:02 10° NE visible
30 May 10.4 03:50:10 14° NW 03:53:56 19° NNW 04:01:20 10° NNE visible
31 May 10.6 02:05:04 19° NNE 02:05:04 19° NNE 02:08:04 10° NE visible
31 May 10.7 04:07:55 10° NW 04:12:21 14° N 04:17:47 10° NNE visible
01 Jun 10.5 02:21:18 19° N 02:21:18 19° N 02:24:50 10° NNE visible
01 Jun 11.0 04:28:29 10° NNW 04:30:58 11° N 04:33:42 10° N visible
02 Jun 10.5 02:37:31 15° N 02:37:31 15° N 02:41:12 10° NNE visible
03 Jun 10.7 02:53:44 11° NNW 02:54:23 11° NNW 02:56:37 10° N visible
